Погода в Даванагере

Индия     14°27′33″N   75°54′55″E
темп.,
°C
ветер,
м/с
пор.,
м/с
влажн.,
%
обл.,
%
осадки,
мм/ч
давл.,
гПа
погр.,
м
27 февраля, сб
сб2723:30+25зсз37490 0.0 1011210
02:30+22зюз12550 0.0 100926
05:30+21юз23560 0.0 100929
08:30+25зюз23440 0.0 1011300
11:30+31з22230 0.0 1011924
14:30+35сз13160 0.0 10073457
17:30+34ссз33150 0.0 10063473
20:30+29всв22210 0.0 100925
28 февраля, вс
вс2823:30+25з35380 0.0 101092
02:30+23з22450 0.0 100830
05:30+22ююв22480 0.0 100824
08:30+26ю24360 0.0 1011251
11:30+33юв55220 0.0 10101928
14:30+35вюв44170 0.0 10063280
17:30+34вюв43160 0.0 10063011
20:30+29в23200 0.0 100924
1 марта, пн
пн123:30+26ююз34270 0.0 101164
02:30+23ю23530 0.0 101033
05:30+22ююз11580 0.0 101023
08:30+26ю23400 0.0 1013253
11:30+33ююв44210 0.0 10121649
14:30+35вюв34140 0.0 10083466
17:30+34вюв54150 0.0 10083407
20:30+29юв34190 0.0 101142
2 марта, вт
вт223:30+25ююв13250 0.0 101242
02:30+22з23750 0.0 101140
05:30+21зсз22800 0.0 101128
08:30+25ю22560 0.0 1013244
11:30+32ююв34200 0.0 10131545
14:30+35в56140 0.0 10093351
17:30+34вюв66150 0.0 10082895
20:30+28вюв45200 0.0 101163
3 марта, ср
ср323:30+26в34250 0.0 101240
02:30+22з23460 0.0 101032
05:30+20зсз23770 0.0 101045
08:30+24юз23630 0.0 1013266
11:30+31юв352421 0.0 10121662
14:30+35в771544 0.0 10083266
17:30+34всв561622 0.0 10073152
20:30+28в49220 0.0 1010170